Other Public Products
Issued by NWS Charleston, SC

Current Version | Previous Version | Graphics & Text | Print | Product List | Glossary On
Versions: 1 2 3 4 5 6 7 8 9 10 11 12 13 14 15 16 17 18 19 20 21 22 23 24 25 26 27 28 29 30 31 32 33 34 35 36 37 38 39 40 41 42 43 44 45 46 47 48 49 50
000 FPUS82 KCHS 200327 OPUCHS TEST...KCHS/KSAV Gateway Observations...TEST National Weather Service Charleston SC 1000 PM EST FRI JAN 19 2018 NOTE: "fair" indicates few or no clouds below 12,000 feet with no significant weather and/or obstructions to visibility. SCZ050-WAZ558-NCZ071-TXZ119-213-PAZ071-DCZ001-FLZ074-172-MI076- NYZ176-178-MAZ016-IL014-TNZ027-NJZ106-GAZ044-MD014-200400- ...Gateway Observations for Charleston International... CITY SKY/WX TMP DP RH WIND PRES REMARKS Chas Airport FAIR 40 30 67 W6 30.24S WCI 36 Seattle CLOUDY 45 37 73 S16 29.89S Charlotte FAIR 40 21 46 CALM 30.17R Dallas DFW CLOUDY 54 44 69 S15 30.03S Dallas Love CLOUDY 53 42 66 S10 30.05F Philladelphia FAIR 38 19 46 SW9 30.02F WCI 31 Wash National FAIR 36 18 48 SW3 30.05S Baltimore FAIR 30 19 63 CALM 30.03S Miami CLOUDY 66 53 63 N5 30.24R Detroit CLOUDY 36 23 59 SW24G33 29.77F WCI 24 Newark FAIR 34 19 54 SW7 29.98F WCI 28 Laguardia FAIR 39 19 44 SW8 29.97F WCI 33 J F K FAIR 34 22 61 S5 30.00S WCI 30 Boston Logan MOCLDY 31 20 63 SW12 29.93F WCI 22 Ft. Lauderdale MOCLDY 64 55 72 E7 30.23S Chicago O`Hare CLOUDY 40 28 62 SW20G32 29.72R WCI 30 Chicago Midway CLOUDY 39 29 67 SW20G31 29.74F WCI 29 Houston Bush FOG 51 51 100 SE14 30.15S VSB 1/2 Houston Hobby CLOUDY 50 50 100 E7 30.15R FOG Nashville MOCLDY 41 22 46 S10 30.17S Atlanta FAIR 43 8 23 W5 30.23S $$ GAZ044-118-TXZ119-213-NCZ071-DCZ001-MDZ014-506-PAZ021-071-NJZ106- NYZ176-178-MAZ106-OHZ011-021-055-MIZ076-KYZ091-ILZ014-INZ047- MNZ060-ONZ431-200400- ...Gateway Observations for Savannah International... CITY SKY/WX TMP DP RH WIND PRES REMARKS Savannah Arpt FAIR 40 24 53 CALM 30.28R Atlanta FAIR 43 8 23 W5 30.23S Charlotte FAIR 40 21 46 CALM 30.17R Dallas DFW CLOUDY 54 44 69 S15 30.03S Houston Bush FOG 51 51 100 SE14 30.15S VSB 1/2 Wash National FAIR 36 18 48 SW3 30.05S Wash Dulles FAIR 29 15 56 CALM 30.04S Baltimore FAIR 30 19 63 CALM 30.03S Philadelphia FAIR 38 19 46 SW9 30.02F WCI 31 Newark FAIR 34 19 54 SW7 29.98F WCI 28 Laguardia FAIR 39 19 44 SW8 29.97F WCI 33 J F K FAIR 34 22 61 S5 30.00S WCI 30 Boston MOCLDY 31 20 63 SW12 29.93F WCI 22 Pittsburg FAIR 34 18 52 SW10 29.97F WCI 26 Akron FAIR 33 18 53 SW18 29.93F WCI 22 Cleveland FAIR 37 20 50 S20G28 29.90F WCI 27 Cincinnati FAIR 35 21 56 SW14 30.03S WCI 26 Columbus FAIR 32 20 60 SW14G21 30.01S WCI 22 Detroit CLOUDY 36 23 59 SW24G33 29.77F WCI 24 Chicago O`Hare CLOUDY 40 28 62 SW20G32 29.72R WCI 30 Minneapolis MOCLDY 39 32 76 W6 29.64R WCI 35 Indianapolis MOCLDY 35 22 58 S15 29.96F WCI 25 Toronto Canada MOCLDY 36 21 55 SW17G26 29.68F WCI 25 $$

USA.gov is the U.S. government's official web portal to all federal, state and local government web resources and services.